Location: Arran
(51.9410°N, 101.7372°W)
Time: 08:14:07
(UTC+00:00)

SWISSCUBE - Pass Details

Date: 19 May 2025
Orbit: 685 x 693 km, 98.4° (Epoch: 20 June)

Event Time Altitude Azimuth Distance (km) Brightness Sun altitude
Rises 06:52:29 0° 8° (N) 3,077 ? -18.2°
Reaches altitude 10° 06:54:56 10° 359° (N) 2,157 ? -18.2°
Maximum altitude 06:59:04 32° 297° (WNW) 1,198 ? -18.1°
Enters shadow 07:02:17 15° 242° (WSW) 1,831 ? -18.1°
